Location: Waverly
(39.3325°N, 76.6061°W)
Time: 09:05:47
(UTC+00:00)

ARIANE 6 FM1 Upper Stage - Pass Details

Date: 16 December 2025
Orbit: 522 x 610 km, 62.0° (Epoch: 14 January)

Event Time Altitude Azimuth Distance (km) Brightness Sun altitude
Exits shadow 09:41:14 - 174° (S) 2,571 6.2 -29.8°
Reaches altitude 10° 09:43:40 10° 156° (SSE) 1,802 5.6 -29.3°
Maximum altitude 09:46:20 17° 115° (ESE) 1,393 5.4 -28.8°
Drops below altitude 10° 09:48:59 10° 73° (ENE) 1,783 6.0 -28.3°
Sets 09:51:44 0° 53° (NE) 2,666 6.7 -27.8°
